Back to catalog

STARLINK-3896

AliveCommunicationsVLEO
NORAD 52456·PAYLOAD·🇺🇸 United States

Launched May 6, 2022 from Cape Canaveral Space Force Station

Loading…

Next Passes (next 24 hours)

TLE

FreshSource: CelesTrak SupGP

Epoch: Sep 15, 2026, 01:09 UTC

1 52456C 22049F   26258.04840278  .00040900  00000+0  13152-2 0  2589
2 52456  53.1582 293.2761 0001139  92.7329 230.3263 15.31683724    14

Track STARLINK-3896 in real time with AllMySat

Download on the App Store